TimeCDT,TemperatureF,Dew PointF,Humidity,Sea Level PressureIn,VisibilityMPH,Wind Direction,Wind SpeedMPH,Gust SpeedMPH,PrecipitationIn,Events,Conditions,WindDirDegrees,DateUTC
12:15 AM,46.4,37.4,71,29.92,10.0,Calm,Calm,-,N/A,,Scattered Clouds,0,2012-09-21 05:15:00
12:35 AM,48.2,39.2,71,29.92,10.0,Calm,Calm,-,N/A,,Mostly Cloudy,0,2012-09-21 05:35:00
12:55 AM,48.2,37.4,66,29.93,10.0,WNW,9.2,-,N/A,Rain,Light Rain,290,2012-09-21 05:55:00
1:15 AM,50.0,39.2,66,29.91,10.0,West,3.5,-,N/A,Rain,Light Rain,280,2012-09-21 06:15:00
1:35 AM,50.0,39.2,66,29.91,10.0,Calm,Calm,-,N/A,,Mostly Cloudy,0,2012-09-21 06:35:00
1:55 AM,48.2,41.0,76,29.91,10.0,SW,4.6,-,N/A,,Scattered Clouds,230,2012-09-21 06:55:00
2:15 AM,48.2,39.2,71,29.92,10.0,Calm,Calm,-,N/A,,Scattered Clouds,0,2012-09-21 07:15:00
2:35 AM,48.2,39.2,71,29.92,10.0,WSW,3.5,-,N/A,,Mostly Cloudy,240,2012-09-21 07:35:00
2:55 AM,48.2,39.2,71,29.91,10.0,Calm,Calm,-,N/A,,Overcast,0,2012-09-21 07:55:00
3:15 AM,48.2,39.2,71,29.91,10.0,Calm,Calm,-,N/A,,Scattered Clouds,0,2012-09-21 08:15:00
3:35 AM,48.2,41.0,76,29.92,10.0,Calm,Calm,-,N/A,Rain,Rain,0,2012-09-21 08:35:00
3:55 AM,48.2,41.0,76,29.92,10.0,Calm,Calm,-,N/A,Rain,Light Rain,0,2012-09-21 08:55:00
4:15 AM,51.8,42.8,71,29.92,10.0,NW,6.9,-,N/A,Rain,Light Rain,320,2012-09-21 09:15:00
4:35 AM,48.2,42.8,82,29.92,10.0,North,5.8,-,0.02,Rain,Light Rain,350,2012-09-21 09:35:00
4:55 AM,48.2,42.8,82,29.92,10.0,NNE,3.5,-,0.02,Rain,Light Rain,30,2012-09-21 09:55:00
5:15 AM,48.2,42.8,82,29.92,10.0,NNE,4.6,-,0.02,Rain,Rain,30,2012-09-21 10:15:00
5:35 AM,48.2,44.6,87,29.91,10.0,Calm,Calm,-,0.04,Rain,Light Rain,0,2012-09-21 10:35:00
5:55 AM,48.2,44.6,87,29.90,10.0,East,4.6,-,0.04,,Light Drizzle,80,2012-09-21 10:55:00
6:15 AM,48.2,44.6,87,29.89,10.0,East,3.5,-,N/A,Rain,Light Rain,90,2012-09-21 11:15:00
6:35 AM,48.2,44.6,87,29.88,10.0,ENE,4.6,-,0.01,Rain,Rain,70,2012-09-21 11:35:00
6:55 AM,48.2,44.6,87,29.89,10.0,ESE,3.5,-,0.02,Rain,Light Rain,120,2012-09-21 11:55:00
7:15 AM,48.2,44.6,87,29.89,10.0,SE,3.5,-,N/A,Rain,Light Rain,130,2012-09-21 12:15:00
7:35 AM,48.2,44.6,87,29.89,10.0,East,3.5,-,N/A,Rain,Light Rain,90,2012-09-21 12:35:00
7:55 AM,48.2,44.6,87,29.90,10.0,ENE,3.5,-,N/A,Rain,Light Rain,60,2012-09-21 12:55:00
8:15 AM,48.2,44.6,87,29.90,10.0,ENE,3.5,-,0.01,Rain,Light Rain,70,2012-09-21 13:15:00
8:35 AM,50.0,44.6,82,29.88,10.0,East,4.6,-,0.01,,Light Drizzle,80,2012-09-21 13:35:00
8:55 AM,50.0,44.6,82,29.88,10.0,East,4.6,-,0.01,Rain,Light Rain,90,2012-09-21 13:55:00
9:15 AM,51.8,46.4,82,29.86,10.0,East,5.8,-,0.01,Rain,Light Rain,90,2012-09-21 14:15:00
9:35 AM,51.8,46.4,82,29.87,10.0,East,5.8,-,0.01,,Overcast,80,2012-09-21 14:35:00
9:55 AM,50.0,46.4,87,29.87,10.0,ENE,6.9,-,0.01,Rain,Light Rain,60,2012-09-21 14:55:00
10:15 AM,50.0,44.6,82,29.88,10.0,NE,6.9,-,0.04,Rain,Rain,50,2012-09-21 15:15:00
10:35 AM,48.2,44.6,87,29.88,10.0,ENE,8.1,-,0.10,Rain,Rain,70,2012-09-21 15:35:00
10:55 AM,48.2,44.6,87,29.86,10.0,East,10.4,-,0.10,Rain,Light Rain,80,2012-09-21 15:55:00
11:15 AM,48.2,46.4,93,29.86,10.0,ENE,4.6,-,N/A,,Overcast,70,2012-09-21 16:15:00
11:35 AM,50.0,46.4,87,29.86,10.0,East,3.5,-,N/A,,Overcast,100,2012-09-21 16:35:00
11:55 AM,51.8,46.4,82,29.86,10.0,SE,5.8,-,N/A,,Overcast,130,2012-09-21 16:55:00
12:15 PM,51.8,46.4,82,29.85,10.0,SSE,5.8,-,N/A,,Overcast,150,2012-09-21 17:15:00
12:35 PM,53.6,48.2,82,29.85,10.0,SSE,3.5,-,N/A,,Overcast,160,2012-09-21 17:35:00
12:55 PM,55.4,48.2,77,29.85,10.0,Calm,Calm,-,N/A,,Mostly Cloudy,0,2012-09-21 17:55:00
1:15 PM,57.2,48.2,72,29.85,10.0,Calm,Calm,-,N/A,,Mostly Cloudy,0,2012-09-21 18:15:00
1:35 PM,60.8,48.2,63,29.84,10.0,Calm,Calm,-,N/A,,Mostly Cloudy,0,2012-09-21 18:35:00
1:55 PM,62.6,44.6,52,29.84,10.0,WNW,3.5,-,N/A,,Scattered Clouds,290,2012-09-21 18:55:00
2:15 PM,64.4,39.2,40,29.83,10.0,WNW,5.8,-,N/A,,Clear,290,2012-09-21 19:15:00
2:35 PM,64.4,41.0,42,29.83,10.0,NNW,5.8,-,N/A,,Scattered Clouds,330,2012-09-21 19:35:00
2:55 PM,64.4,39.2,40,29.82,10.0,Calm,Calm,-,N/A,,Scattered Clouds,0,2012-09-21 19:55:00
3:15 PM,66.2,42.8,43,29.82,10.0,NW,8.1,-,N/A,,Clear,320,2012-09-21 20:15:00
3:35 PM,66.2,41.0,40,29.81,10.0,WNW,8.1,-,N/A,,Scattered Clouds,300,2012-09-21 20:35:00
3:55 PM,66.2,39.2,37,29.81,10.0,North,5.8,-,N/A,,Scattered Clouds,360,2012-09-21 20:55:00
4:15 PM,66.2,39.2,37,29.81,10.0,West,8.1,-,N/A,,Mostly Cloudy,260,2012-09-21 21:15:00
4:35 PM,66.2,41.0,40,29.80,10.0,North,9.2,-,N/A,,Mostly Cloudy,350,2012-09-21 21:35:00
4:55 PM,62.6,39.2,42,29.81,10.0,NNW,6.9,-,N/A,,Mostly Cloudy,340,2012-09-21 21:55:00
5:15 PM,64.4,41.0,42,29.81,10.0,NNW,5.8,-,N/A,,Overcast,330,2012-09-21 22:15:00
5:35 PM,64.4,37.4,37,29.81,10.0,NW,9.2,-,N/A,,Mostly Cloudy,310,2012-09-21 22:35:00
5:55 PM,62.6,39.2,42,29.82,10.0,NW,6.9,-,N/A,,Overcast,310,2012-09-21 22:55:00
6:15 PM,62.6,39.2,42,29.82,10.0,North,9.2,-,N/A,,Overcast,350,2012-09-21 23:15:00
6:35 PM,60.8,41.0,48,29.83,10.0,North,5.8,-,N/A,,Mostly Cloudy,350,2012-09-21 23:35:00
6:55 PM,60.8,41.0,48,29.84,10.0,NNW,6.9,-,N/A,,Mostly Cloudy,340,2012-09-21 23:55:00
7:15 PM,57.2,41.0,55,29.85,10.0,NNW,6.9,-,N/A,,Mostly Cloudy,340,2012-09-22 00:15:00
7:35 PM,57.2,41.0,55,29.85,10.0,NNW,3.5,-,N/A,,Mostly Cloudy,340,2012-09-22 00:35:00
7:55 PM,55.4,42.8,63,29.85,10.0,Calm,Calm,-,N/A,,Scattered Clouds,0,2012-09-22 00:55:00
8:15 PM,51.8,44.6,76,29.86,10.0,Calm,Calm,-,N/A,,Scattered Clouds,0,2012-09-22 01:15:00
8:35 PM,48.2,42.8,82,29.86,10.0,NW,3.5,-,N/A,,Clear,320,2012-09-22 01:35:00
8:55 PM,46.4,42.8,87,29.86,10.0,Calm,Calm,-,N/A,,Clear,0,2012-09-22 01:55:00
9:15 PM,46.4,41.0,81,29.86,10.0,Calm,Calm,-,N/A,,Clear,0,2012-09-22 02:15:00
9:35 PM,44.6,41.0,87,29.86,10.0,Calm,Calm,-,N/A,,Clear,0,2012-09-22 02:35:00
9:55 PM,44.6,39.2,81,29.86,10.0,Calm,Calm,-,N/A,,Clear,0,2012-09-22 02:55:00
10:15 PM,46.4,42.8,87,29.85,10.0,Calm,Calm,-,N/A,,Mostly Cloudy,0,2012-09-22 03:15:00
10:35 PM,48.2,42.8,82,29.84,10.0,SSW,3.5,-,N/A,,Scattered Clouds,210,2012-09-22 03:35:00
10:55 PM,48.2,42.8,82,29.84,10.0,SW,3.5,-,N/A,,Mostly Cloudy,230,2012-09-22 03:55:00
11:15 PM,48.2,44.6,87,29.85,10.0,WNW,4.6,-,N/A,,Overcast,300,2012-09-22 04:15:00
11:35 PM,51.8,42.8,71,29.86,10.0,NNW,6.9,-,N/A,Rain,Light Rain,330,2012-09-22 04:35:00
11:55 PM,51.8,41.0,67,29.84,10.0,West,5.8,-,N/A,,Overcast,260,2012-09-22 04:55:00